Home   Weather   Owensboro   Past weeks

Flag for USA Past Weather in Owensboro, Kentucky, USA — Yesterday and Last 2 Weeks

Now
82 °F

Clear.


Feels Like: 84 °F
Forecast: 56 / 73 °F
Wind: No wind

Location: Evansville Regional Airport

Current Time: Sep 25, 2016 at 7:22:24 PM

Latest Report: Sep 25, 2016 at 6:54 PM


Visibility: 10 mi

Pressure: 29.98 "Hg

Humidity: 60%

Dew Point: 67 °F

Location of OwensboroLocation

Past Weather in Owensboro — Graph

°F

Owensboro Temperature Yesterday

Maximum temperature yesterday: 91 °F (at 2:54 PM)
Minimum temperature yesterday: 66 °F (at 2:54 AM)
Average temperature yesterday: 78 °F

High & Low Weather Summary for the Past Weeks

 TemperatureHumidityPressure
High91 °F (Sep 23, 1:54 PM)97% (Sep 12, 4:54 AM)30.24 "Hg (Sep 12, 4:54 AM)
Low55 °F (Sep 12, 4:04 AM)30% (Sep 20, 3:54 PM)29.94 "Hg (Sep 18, 4:54 PM)
Average74 °F72%30.07 "Hg
* Reported Sep 10 5:54 PM — Sep 25 5:54 PM, Owensboro, Weather by CustomWeather, © 2016

Note: Actual official high and low records may vary slightly from our data, if they occured in-between our weather recording intervals... More about our weather records

Advertising

Owensboro Weather History for the Previous 24 Hours

Scroll right to see more
 ConditionsComfort  
Time TempWeatherWind HumidityBarometerVisibility
5:54 PM
Sun, Sep 25
88 °FClear.No wind48%29.98 "Hg10 mi
4:54 PM89 °FSunny.6 mph46%29.98 "Hg10 mi
3:54 PM91 °FScattered clouds.3 mph42%29.99 "Hg10 mi
2:54 PM91 °FSunny.No wind42%30.01 "Hg10 mi
1:54 PM91 °FSunny.3 mph41%30.04 "Hg10 mi
12:54 PM90 °FSunny.5 mph43%30.06 "Hg10 mi
11:54 AM88 °FSunny.5 mph46%30.07 "Hg10 mi
10:54 AM85 °FSunny.5 mph53%30.08 "Hg10 mi
9:54 AM81 °FSunny.No wind67%30.09 "Hg8 mi
8:54 AM75 °FSunny.3 mph79%30.09 "Hg5 mi
7:54 AM72 °FSunny.No wind84%30.09 "Hg2 mi
6:54 AM66 °FFog.No wind93%30.08 "Hg2 mi
5:54 AM67 °FFog.No wind90%30.07 "Hg5 mi
4:54 AM68 °FFog.No wind90%30.07 "Hg6 mi
3:54 AM67 °FFog.3 mph90%30.06 "Hg6 mi
2:54 AM69 °FClear.5 mph87%30.07 "Hg9 mi
1:54 AM68 °FClear.3 mph90%30.08 "Hg7 mi
12:54 AM71 °FClear.No wind81%30.08 "Hg10 mi
11:54 PM
Sat, Sep 24
72 °FClear.No wind81%30.07 "Hg10 mi
10:54 PM72 °FClear.3 mph84%30.06 "Hg10 mi
9:54 PM73 °FClear.No wind81%30.05 "Hg10 mi
8:54 PM76 °FClear.No wind72%30.05 "Hg10 mi
7:54 PM78 °FClear.No wind69%30.03 "Hg10 mi
Weather by CustomWeather, © 2016

See weather overviewHow to use our weather pages